Louisville, KY

9:17 AM EDT on April 20, 2018 (GMT -0400)
Louisville International-Standiford

Weather History for KSDF - April, 2013

Change the Weather History Date:

Friday, April 5, 2013

  Actual Average Record
Temperature  
Mean Temperature 51 °F 55 °F  
Max Temperature 68 °F 65 °F 87 °F (1988)
Min Temperature 34 °F 44 °F 25 °F (1944)
Degree Days  
Heating Degree Days 14 11  
Month to date heating degree days 97 58  
Since 1 July heating degree days 3914 3837  
Cooling Degree Days 0 1  
Month to date cooling degree days 0 5  
Year to date cooling degree days 0 11  
Growing Degree Days 1 (Base 50)    
Moisture  
Dew Point 28 °F    
Average Humidity 49    
Maximum Humidity 75    
Minimum Humidity 22    
Precipitation  
Precipitation 0.00 in 0.12 in 2.32 in (1883)
Month to date precipitation 0.00 0.61  
Year to date precipitation 11.27 11.20  
Snow  
Snow 0.00 in 0.00 in 1.70 in (1898)
Month to date snowfall 0.0 0.0  
Since 1 July snowfall 9.8 12.4  
Snow Depth 0.00 in    
Sea Level Pressure  
Sea Level Pressure 30.06 in    
Wind  
Wind Speed 5 mph (North)    
Max Wind Speed 16 mph    
Max Gust Speed 21 mph    
Visibility 10 miles    
Events      
T = Trace of Precipitation, MM = Missing Value Source: NWS Daily Summary

Daily Weather History Graph

Daily Weather History Graph

Search for Another Location

Airport or City:

Astronomy

Apr. 05, 2013 Rise Set
Actual Time 7:21 AM EDT 8:10 PM EDT
Civil Twilight 6:54 AM EDT 8:36 PM EDT
Nautical Twilight 6:23 AM EDT 9:08 PM EDT
Astronomical Twilight 5:50 AM EDT 9:41 PM EDT
Moon 4:24 AM EDT (4/5) 3:37 PM EDT (4/5)
Length of Visible Light 13h 41m
Length of Day
12h 48m
Waning Crescent, 24% of the Moon is Illuminated
Apr 5
Waning Crescent
Apr 10
New
Apr 18
First Quarter
Apr 25
Full
May 2
Last Quarter

Hourly Weather History & Observations

Time (EDT) Temp. Dew Point Humidity Pressure Visibility Wind Dir Wind Speed Gust Speed Precip Events Conditions
12:56 AM 45.0 °F 26.1 °F 48% 30.01 in 10.0 mi Calm Calm - N/A   Clear
1:56 AM 39.9 °F 27.0 °F 60% 30.02 in 10.0 mi Calm Calm - N/A   Clear
2:56 AM 39.0 °F 27.0 °F 62% 30.02 in 10.0 mi Calm Calm - N/A   Clear
3:56 AM 39.0 °F 28.0 °F 65% 30.02 in 10.0 mi Calm Calm - N/A   Clear
4:56 AM 41.0 °F 28.9 °F 62% 30.04 in 10.0 mi Calm Calm - N/A   Clear
5:56 AM 37.0 °F 28.0 °F 70% 30.05 in 10.0 mi Calm Calm - N/A   Clear
6:56 AM 36.0 °F 28.0 °F 73% 30.06 in 10.0 mi Calm Calm - N/A   Clear
7:56 AM 37.0 °F 28.9 °F 73% 30.08 in 9.0 mi Calm Calm - N/A   Clear
8:56 AM 43.0 °F 32.0 °F 65% 30.09 in 8.0 mi Calm Calm - N/A   Clear
9:56 AM 50.0 °F 28.9 °F 44% 30.09 in 9.0 mi Calm Calm - N/A   Clear
10:56 AM 57.0 °F 26.1 °F 30% 30.09 in 10.0 mi NNW 3.5 mph - N/A   Clear
11:56 AM 61.0 °F 26.1 °F 26% 30.09 in 10.0 mi NW 4.6 mph - N/A   Clear
12:56 PM 64.0 °F 27.0 °F 25% 30.07 in 10.0 mi NW 4.6 mph - N/A   Clear
1:56 PM 66.0 °F 28.9 °F 25% 30.06 in 10.0 mi NW 5.8 mph 16.1 mph N/A   Clear
2:56 PM 66.9 °F 28.0 °F 23% 30.04 in 10.0 mi NW 9.2 mph 18.4 mph N/A   Clear
3:56 PM 68.0 °F 28.9 °F 23% 30.03 in 10.0 mi North 15.0 mph - N/A   Partly Cloudy
4:56 PM 66.9 °F 30.0 °F 25% 30.03 in 10.0 mi North 13.8 mph 20.7 mph N/A   Scattered Clouds
5:56 PM 66.0 °F 32.0 °F 28% 30.03 in 10.0 mi NNE 11.5 mph - N/A   Scattered Clouds
6:56 PM 64.0 °F 30.9 °F 29% 30.04 in 10.0 mi North 9.2 mph - N/A   Scattered Clouds
7:56 PM 61.0 °F 27.0 °F 27% 30.06 in 10.0 mi North 8.1 mph - N/A   Mostly Cloudy
8:56 PM 57.9 °F 26.1 °F 30% 30.08 in 10.0 mi NNE 6.9 mph - N/A   Mostly Cloudy
9:56 PM 55.0 °F 27.0 °F 34% 30.11 in 10.0 mi North 8.1 mph - N/A   Mostly Cloudy
10:56 PM 53.1 °F 26.1 °F 35% 30.12 in 10.0 mi North 4.6 mph - N/A   Mostly Cloudy
11:56 PM 52.0 °F 26.1 °F 37% 30.12 in 10.0 mi NNE 3.5 mph - N/A   Scattered Clouds